Content
SEND FEEDBACK

Daily
Averages
Monthly
Summary
United States of America

YIGO, GUAM


Home > North America > United States > Guam
Elevation: 162 meters     Latitude: 13 32N     Longitude: 144 53E

WEATHER
 
SELECT A DAY
Number of Records: 208,807;   Date Range: 1/1/95 - 7/7/14
 
SHARE

PRINT THIS DATA

[ ← Previous Day ]
WEATHER ALMANAC - 17 JANUARY, 2013
[ Next Day → ]
[ °F ]   °C
Weather ElementAverageHighLow
Temperature27.1 °C30 °C (1:54 pm)25 °C (1:54 am)
Dewpoint22.7 °C24.4 °C (1:54 am)21.7 °C (1:54 pm)
Humidity77.7 %96 % (1:54 am)61 % (1:54 pm)
Barometer1011.5 hPa1013.2 hPa (8:54 am)1009.5 hPa (1:54 pm)
Wind Speed17.2 km/h29.6 km/h (3:54 pm)
Wind Gust40.7 km/h (11:54 am)
Weather ElementAverage
Visibility16.1 km
Wind DirectionENE (72.6 °)

Weather ElementTotal
Precipitation---
Cooling Degree Days9.2 (Base 18.3)
Growing Degree Days17.5 (Base 10)
Averaged from 23 records on 17 January, 2013
WEATHER CONDITIONS BREAKOUT
WIND DIRECTION BREAKOUT
WEATHER BY HOUR - 17 JANUARY, 2013
[ °F ]   °C
Local TimeTemperatureDewpointHumidityBarometerVisibilityWind DirectionWind SpeedGust SpeedPrecipitationEventsConditions
1:54 AM25 °C24.4 °C96 %1011.9 hPa16.1 kmENE (60°)11.1 km/hPartly Cloudy
2:54 AM25 °C23.9 °C94 %1011.9 hPa16.1 kmENE (60°)13 km/hPartly Cloudy
3:54 AM25 °C23.9 °C94 %1011.5 hPa16.1 kmENE (70°)13 km/hPartly Cloudy
4:54 AM25 °C23.3 °C90 %1011.2 hPa16.1 kmENE (70°)11.1 km/hClear
5:54 AM25 °C23.9 °C94 %1011.5 hPa16.1 kmEast (80°)11.1 km/hClear
6:54 AM25.6 °C22.8 °C84 %1012.2 hPa16.1 kmEast (80°)13 km/hClear
7:54 AM26.1 °C22.8 °C82 %1012.9 hPa16.1 kmEast (80°)13 km/hClear
8:54 AM26.7 °C22.8 °C79 %1013.2 hPa16.1 kmEast (80°)16.7 km/hScattered Clouds
9:54 AM28.3 °C23.3 °C74 %1013.2 hPa16.1 kmEast (90°)24.1 km/h33.3 km/hPartly Cloudy
10:54 AM28.9 °C22.2 °C67 %1012.2 hPa16.1 kmEast (80°)27.8 km/h37 km/hScattered Clouds
11:54 AM29.4 °C22.8 °C67 %1011.5 hPa16.1 kmEast (90°)25.9 km/h40.7 km/hMostly Cloudy
12:54 PM29.4 °C22.2 °C65 %1010.2 hPa16.1 kmENE (60°)22.2 km/hScattered Clouds
1:54 PM30 °C21.7 °C61 %1009.5 hPa16.1 kmENE (70°)24.1 km/h35.2 km/hPartly Cloudy
2:54 PM29.4 °C21.7 °C63 %1009.5 hPa16.1 kmENE (60°)22.2 km/h33.3 km/hPartly Cloudy
3:54 PM28.9 °C22.2 °C67 %1009.5 hPa16.1 kmENE (60°)29.6 km/hScattered Clouds
4:54 PM28.3 °C22.2 °C69 %1010.2 hPa16.1 kmENE (70°)20.4 km/hScattered Clouds
5:54 PM27.2 °C22.2 °C74 %1010.8 hPa16.1 kmEast (80°)16.7 km/hPartly Cloudy
6:54 PM26.7 °C22.8 °C79 %1011.2 hPa16.1 kmENE (70°)16.7 km/hClear
7:54 PM26.7 °C22.8 °C79 %1011.9 hPa16.1 kmENE (70°)11.1 km/hClear
8:54 PM26.7 °C22.2 °C76 %1011.5 hPa16.1 kmENE (70°)16.7 km/hClear
9:54 PM26.7 °C22.2 °C76 %1011.5 hPa16.1 kmENE (70°)14.8 km/hScattered Clouds
10:54 PM26.1 °C22.2 °C79 %1011.5 hPa16.1 kmEast (80°)13 km/hClear
11:54 PM26.1 °C21.7 °C77 %1011.2 hPa16.1 kmENE (70°)9.3 km/hClear
Hourly data recorded from PGUM, located 0 kilometers away from Yigo, Guam







STORIES FROM OUR PARTNERS